Simultaneous Nadir Overpasses (SNOs) Predictions

Prediction of SNOs between FY3D and METOP-C Satellite Orbit:

Table of predicted SNOs for the next 14.0 days since TLE Epoch: 4/5/2024
Index Date (FY3D) Time (FY3D) Lat,Lon (FY3D) SZA (FY3D ) Date (METOP-C) Time (METOP-C) Lat,Lon (METOP-C) SZA (METOP-C ) Distance(km) Time Diff (sec)
1 04/17/2024 11:38:07 76.15, 2.95 65.34 04/17/2024 11:39:15 76.12, 5.47 65.30 67.11 68
2 04/17/2024 12:28:49 -76.05, 170.65 114.78 04/17/2024 12:29:59 -76.00, 172.38 114.85 46.81 70
3 04/17/2024 13:19:30 75.80, -21.17 64.95 04/17/2024 13:20:44 75.77, -21.03 64.92 4.76 74
4 04/17/2024 14:10:13 -75.73, 146.35 115.13 04/17/2024 14:11:26 -75.74, 146.20 115.12 4.12 73
5 04/17/2024 15:01:00 75.75, -46.41 64.88 04/17/2024 15:02:06 75.75, -46.45 64.87 1.30 66
6 04/17/2024 15:51:44 -75.74, 120.96 115.15 04/17/2024 15:52:47 -75.76, 120.94 115.13 2.84 63
7 04/17/2024 16:42:31 75.76, -71.80 64.86 04/17/2024 16:43:27 75.77, -71.71 64.87 2.82 56
8 04/17/2024 17:33:15 -75.74, 95.56 115.17 04/17/2024 17:34:09 -75.74, 95.52 115.17 1.18 54
9 04/17/2024 18:24:02 75.76, -97.20 64.84 04/17/2024 18:24:49 75.75, -97.13 64.82 2.86 47
10 04/17/2024 19:14:46 -75.75, 70.17 115.19 04/17/2024 19:15:30 -75.76, 70.26 115.18 2.90 44
11 04/17/2024 20:05:32 75.72,-122.44 64.78 04/17/2024 20:06:11 75.72,-122.54 64.78 2.79 39
12 04/17/2024 20:56:17 -75.75, 44.78 115.21 04/17/2024 20:56:52 -75.74, 44.84 115.22 2.37 35
13 04/17/2024 21:47:03 75.73,-147.83 64.76 04/17/2024 21:47:32 75.75,-147.81 64.77 2.05 29
14 04/17/2024 22:37:47 -75.71, 19.54 115.28 04/17/2024 22:38:14 -75.72, 19.43 115.27 2.99 27
15 04/17/2024 23:28:34 75.73,-173.23 64.74 04/17/2024 23:28:54 75.72,-173.22 64.73 1.29 20
16 04/18/2024 00:19:18 -75.72, -5.86 115.29 04/18/2024 00:19:35 -75.74, -5.84 115.27 2.46 17
17 04/18/2024 01:10:05 75.74, 161.38 64.72 04/18/2024 01:10:15 75.75, 161.51 64.73 3.79 10
18 04/18/2024 02:00:49 -75.72, -31.25 115.31 04/18/2024 02:00:57 -75.72, -31.25 115.32 0.77 8
19 04/18/2024 02:51:35 75.70, 136.14 64.65 04/18/2024 02:51:37 75.72, 136.10 64.68 2.87 2
20 04/18/2024 03:42:20 -75.73, -56.65 115.33 04/18/2024 03:42:18 -75.74, -56.52 115.32 3.69 2
21 04/18/2024 04:33:06 75.70, 110.74 64.63 04/18/2024 04:32:59 75.70, 110.68 64.63 1.72 7
22 04/18/2024 05:23:50 -75.69, -81.89 115.40 04/18/2024 05:23:40 -75.72, -81.93 115.37 3.41 10
23 04/18/2024 06:14:37 75.71, 85.35 64.61 04/18/2024 06:14:20 75.72, 85.42 64.63 2.41 17
24 04/18/2024 07:05:21 -75.69,-107.28 115.42 04/18/2024 07:05:02 -75.69,-107.35 115.42 1.87 19
25 04/18/2024 07:56:08 75.71, 59.95 64.60 04/18/2024 07:55:42 75.70, 60.00 64.58 2.16 26
26 04/18/2024 08:46:52 -75.70,-132.68 115.44 04/18/2024 08:46:23 -75.71,-132.62 115.42 2.57 29
27 04/18/2024 09:37:38 75.67, 34.71 64.53 04/18/2024 09:37:04 75.67, 34.59 64.53 3.45 34
28 04/18/2024 10:28:23 -75.70,-158.07 115.46 04/18/2024 10:27:45 -75.69,-158.03 115.47 1.60 38
29 04/18/2024 11:19:09 75.68, 9.32 64.51 04/18/2024 11:18:25 75.70, 9.32 64.53 2.23 44
30 04/18/2024 12:09:53 -75.66, 176.69 115.52 04/18/2024 12:09:07 -75.67, 176.55 115.52 3.76 46
31 04/18/2024 13:00:40 75.68, -16.07 64.49 04/18/2024 12:59:47 75.67, -16.09 64.48 1.08 53
32 04/18/2024 13:51:24 -75.67, 151.30 115.54 04/18/2024 13:50:28 -75.69, 151.29 115.52 2.73 56
33 04/18/2024 14:42:11 75.69, -41.47 64.47 04/18/2024 14:41:08 75.70, -41.36 64.48 3.23 63
34 04/18/2024 15:32:55 -75.67, 125.90 115.56 04/18/2024 15:31:50 -75.67, 125.87 115.57 0.89 65
35 04/18/2024 16:23:42 75.69, -66.86 64.45 04/18/2024 16:22:30 75.67, -66.77 64.43 3.30 72
36 04/18/2024 17:14:26 -75.68, 100.51 115.58 04/18/2024 17:13:11 -75.69, 100.61 115.57 3.15 75
37 04/18/2024 18:05:07 75.42, -91.36 64.15 04/18/2024 18:03:56 75.46, -92.77 64.20 39.87 71
38 04/18/2024 18:55:49 -75.31, 76.30 115.97 04/18/2024 18:54:40 -75.34, 74.18 115.94 59.86 69



Historial Predications of SNOs between FY3D and METOP-C
